Weather History for KASD - November, 2013

Change the Weather History Date:

Wednesday, November 6, 2013

  Actual Average (KNEW) Record (KNEW)
Temperature  
Mean Temperature 69 °F 65 °F  
Max Temperature 79 °F 75 °F 85 °F (2003)
Min Temperature 59 °F 56 °F 32 °F (1991)
Degree Days  
Heating Degree Days 0 3  
Month to date heating degree days 15  
Since 1 July heating degree days 40  
Cooling Degree Days 4 3  
Month to date cooling degree days 21  
Year to date cooling degree days 2930  
Growing Degree Days 19 (Base 50)    
Moisture  
Dew Point 67 °F    
Average Humidity 84    
Maximum Humidity 94    
Minimum Humidity 69    
Precipitation  
Precipitation 0.06 in 0.14 in 1.84 in (1955)
Month to date precipitation 0.83  
Year to date precipitation 53.55  
Snow  
Snow 0.00 in - - ()
Month to date snowfall  
Since 1 July snowfall  
Since 1 September snowfall  
Snow Depth -    
Sea Level Pressure  
Sea Level Pressure 30.08 in    
Wind  
Wind Speed 5 mph (ESE)    
Max Wind Speed 14 mph    
Max Gust Speed 22 mph    
Visibility 9 miles    
Events Rain    
T = Trace of Precipitation, MM = Missing Value Source: NWS Daily Summary

Daily Weather History Graph

Daily Weather History Graph

Search for Another Location

Airport or City:

Trip Planner

Search our weather history database for the weather conditions in past years. The results will help you decide how hot, cold, wet, or windy it might be!

Date:

Astronomy

Nov. 06, 2013 Rise Set
Actual Time 6:17 AM CST 5:07 PM CST
Civil Twilight 5:52 AM CST 5:32 PM CST
Nautical Twilight 5:24 AM CST 6:01 PM CST
Astronomical Twilight 4:55 AM CST 6:29 PM CST
Moon 9:27 AM CST (11/6) 8:17 PM CST (11/6)
Length of Visible Light 11h 39m
Length of Day
10h 49m
Waxing Crescent, 14% of the Moon is Illuminated
Nov 6
Waxing Crescent
Nov 9
First Quarter
Nov 17
Full
Nov 25
Last Quarter
Dec 2
New

Hourly Weather History & Observations

Time (CST) Temp. Dew Point Humidity Pressure Visibility Wind Dir Wind Speed Gust Speed Precip Events Conditions
12:53 AM 64.0 °F 57.9 °F 80% 30.11 in 10.0 mi East 5.8 mph - N/A   Clear
1:53 AM 62.1 °F 57.0 °F 84% 30.10 in 10.0 mi East 3.5 mph - N/A   Clear
2:53 AM 62.1 °F 57.0 °F 84% 30.09 in 10.0 mi ENE 3.5 mph - N/A   Clear
3:53 AM 61.0 °F 55.9 °F 83% 30.10 in 10.0 mi Calm Calm - N/A   Clear
4:53 AM 60.1 °F 55.9 °F 86% 30.10 in 10.0 mi Calm Calm - N/A   Clear
5:53 AM 59.0 °F 55.0 °F 87% 30.11 in 10.0 mi NE 3.5 mph - N/A   Clear
6:53 AM 60.1 °F 55.9 °F 86% 30.11 in 10.0 mi NE 4.6 mph - N/A   Clear
7:53 AM 64.0 °F 57.9 °F 80% 30.12 in 10.0 mi ENE 4.6 mph - N/A   Clear
8:53 AM 69.1 °F 62.1 °F 78% 30.12 in 10.0 mi ESE 5.8 mph - N/A   Partly Cloudy
9:53 AM 75.9 °F 66.0 °F 71% 30.12 in 10.0 mi Variable 6.9 mph - N/A   Clear
10:21 AM 77.0 °F 68.0 °F 74% 30.12 in 10.0 mi ESE 5.8 mph 17.3 mph N/A   Mostly Cloudy
10:53 AM 79.0 °F 69.1 °F 72% 30.11 in 10.0 mi SE 8.1 mph - N/A   Mostly Cloudy
11:29 AM 78.8 °F 68.0 °F 69% 30.10 in 10.0 mi ESE 13.8 mph - N/A   Overcast
11:39 AM 78.8 °F 68.0 °F 69% 30.10 in 10.0 mi SE 8.1 mph 17.3 mph N/A   Overcast
11:53 AM 78.1 °F 69.1 °F 74% 30.09 in 10.0 mi ESE 8.1 mph - N/A   Overcast
12:05 PM 78.8 °F 68.0 °F 69% 30.09 in 10.0 mi SE 10.4 mph 18.4 mph N/A   Overcast
12:53 PM 79.0 °F 69.1 °F 72% 30.06 in 10.0 mi ESE 10.4 mph 21.9 mph N/A   Overcast
1:16 PM 78.8 °F 68.0 °F 69% 30.06 in 10.0 mi SE 10.4 mph 21.9 mph N/A   Overcast
1:42 PM 78.8 °F 68.0 °F 69% 30.06 in 10.0 mi SE 12.7 mph - N/A   Overcast
1:53 PM 78.1 °F 69.1 °F 74% 30.06 in 10.0 mi ESE 8.1 mph 16.1 mph N/A   Overcast
2:20 PM 77.0 °F 69.8 °F 78% 30.05 in 10.0 mi ESE 8.1 mph 18.4 mph N/A   Overcast
2:53 PM 77.0 °F 69.1 °F 76% 30.05 in 10.0 mi ESE 8.1 mph - N/A   Overcast
3:53 PM 75.9 °F 69.1 °F 79% 30.05 in 10.0 mi ESE 11.5 mph - N/A   Overcast
4:32 PM 75.2 °F 69.8 °F 83% 30.04 in 10.0 mi ESE 9.2 mph - N/A   Overcast
4:40 PM 75.2 °F 69.8 °F 83% 30.05 in 10.0 mi ESE 5.8 mph - N/A   Overcast
4:53 PM 75.0 °F 69.1 °F 82% 30.05 in 10.0 mi ESE 6.9 mph - N/A   Overcast
5:53 PM 73.9 °F 69.1 °F 85% 30.06 in 10.0 mi SE 8.1 mph 18.4 mph N/A   Overcast
6:18 PM 73.4 °F 69.8 °F 88% 30.07 in 10.0 mi SE 5.8 mph - N/A   Overcast
6:29 PM 73.4 °F 69.8 °F 88% 30.07 in 10.0 mi SE 6.9 mph - N/A   Overcast
6:39 PM 73.4 °F 69.8 °F 88% 30.07 in 10.0 mi SE 4.6 mph - N/A   Overcast
6:48 PM 73.4 °F 69.8 °F 88% 30.07 in 10.0 mi ESE 6.9 mph - N/A   Overcast
6:53 PM 73.0 °F 69.1 °F 87% 30.07 in 10.0 mi SE 6.9 mph - N/A   Overcast
7:08 PM 73.4 °F 69.8 °F 88% 30.07 in 10.0 mi SE 4.6 mph - N/A   Mostly Cloudy
7:16 PM 71.6 °F 69.8 °F 94% 30.07 in 10.0 mi SE 8.1 mph - N/A   Mostly Cloudy
7:49 PM 71.6 °F 69.8 °F 94% 30.07 in 10.0 mi Calm Calm - N/A   Overcast
7:53 PM 72.0 °F 69.1 °F 91% 30.08 in 10.0 mi Calm Calm - N/A   Overcast
8:53 PM 72.0 °F 69.1 °F 91% 30.08 in 10.0 mi Calm Calm - N/A   Mostly Cloudy
9:09 PM 71.6 °F 69.8 °F 94% 30.08 in 10.0 mi Calm Calm - N/A   Overcast
9:18 PM 71.6 °F 69.8 °F 94% 30.08 in 10.0 mi Calm Calm - N/A   Overcast
9:53 PM 71.1 °F 69.1 °F 93% 30.08 in 10.0 mi Calm Calm - 0.00 in   Overcast
10:32 PM 71.6 °F 69.8 °F 94% 30.07 in 10.0 mi Calm Calm - 0.00 in Rain Light Rain
10:46 PM 71.6 °F 69.8 °F 94% 30.08 in 2.5 mi Calm Calm - 0.02 in Rain Rain
10:53 PM 71.1 °F 69.1 °F 93% 30.08 in 2.0 mi Calm Calm - 0.02 in Rain Light Rain
11:13 PM 71.6 °F 69.8 °F 94% 30.08 in 3.0 mi NNW 3.5 mph - 0.03 in Rain Light Rain
11:23 PM 71.6 °F 69.8 °F 94% 30.07 in 2.5 mi North 4.6 mph - 0.04 in Rain Light Rain
11:32 PM 71.6 °F 69.8 °F 94% 30.07 in 4.0 mi North 5.8 mph - 0.04 in Rain Light Rain
11:53 PM 70.0 °F 68.0 °F 93% 30.07 in 10.0 mi NNE 4.6 mph - 0.04 in   Overcast